Location: Bottenau
(48.5138°N, 8.0462°E)
Time: 03:51:41
(UTC+00:00)

Cosmos 1655 Rocket - Pass Details

Date: 18 April 2021
Orbit: 970 x 1007 km, 82.9° (Epoch: 09 May)

Event Time Altitude Azimuth Distance (km) Brightness Sun altitude
Rises 20:25:16 0° 350° (N) 3,713 7.9 -18.1°
Reaches altitude 10° 20:27:49 10° 352° (N) 2,755 7.1 -18.5°
Maximum altitude 20:34:09 86° 81° (E) 989 3.9 -19.2°
Enters shadow 20:37:46 27° 170° (S) 1,774 4.9 -19.6°
